Istanbul, Turkey

7:57 AM +03 on January 19, 2018 (GMT +0300)
Ataturk

Weather History for LTBA - September, 2013

Change the Weather History Date:

Saturday, September 7, 2013

  Actual Average Record
Temperature  
Mean Temperature 74 °F -  
Max Temperature 84 °F 72 °F 86 °F (2016)
Min Temperature 64 °F 60 °F 51 °F (1996)
Cooling Degree Days 9    
Growing Degree Days 24 (Base 50)    
Moisture  
Dew Point 47 °F    
Average Humidity 38    
Maximum Humidity 52    
Minimum Humidity 14    
Precipitation  
Precipitation 0.00 in - - ()
Sea Level Pressure  
Sea Level Pressure 30.03 in    
Wind  
Wind Speed 7 mph ()    
Max Wind Speed 13 mph    
Max Gust Speed -    
Visibility 6.6 miles    
Events      
Averages and records for this station are not official NWS values.
T = Trace of Precipitation, MM = Missing Value Source: Averaged Metar Reports

Daily Weather History Graph

Daily Weather History Graph

Search for Another Location

Airport or City:

Trip Planner

Search our weather history database for the weather conditions in past years. The results will help you decide how hot, cold, wet, or windy it might be!

Date:

Astronomy

Sep. 07, 2013 Rise Set
Actual Time 6:37 AM EEST 7:27 PM EEST
Civil Twilight 6:09 AM EEST 7:55 PM EEST
Nautical Twilight 5:36 AM EEST 8:28 PM EEST
Astronomical Twilight 5:01 AM EEST 9:02 PM EEST
Moon 8:32 AM EEST (9/7) 8:12 PM EEST (9/7)
Length of Visible Light 13h 45m
Length of Day
12h 50m
Waxing Crescent, 4% of the Moon is Illuminated
Sep 7
Waxing Crescent
Sep 12
First Quarter
Sep 19
Full
Sep 27
Last Quarter
Oct 5
New

Hourly Weather History & Observations

Time (EEST) Temp. Dew Point Humidity Pressure Visibility Wind Dir Wind Speed Gust Speed Precip Events Conditions
12:20 AM 71.6 °F 48.2 °F 43% 29.98 in - NE 6.9 mph - N/A   Clear
12:50 AM 71.6 °F 46.4 °F 41% 29.98 in - NE 6.9 mph - N/A   Clear
1:20 AM 71.6 °F 46.4 °F 41% 29.98 in - NE 6.9 mph - N/A   Clear
1:50 AM 69.8 °F 46.4 °F 43% 29.98 in - NE 6.9 mph - N/A   Clear
2:20 AM 71.6 °F 46.4 °F 41% 29.98 in - Variable 4.6 mph - N/A   Clear
2:50 AM 69.8 °F 46.4 °F 43% 29.98 in - NE 5.8 mph - N/A   Clear
3:20 AM 69.8 °F 46.4 °F 43% 29.98 in - NE 4.6 mph - N/A   Clear
3:50 AM 69.8 °F 46.4 °F 43% 29.98 in - NNE 5.8 mph - N/A   Clear
4:20 AM 64.4 °F 46.4 °F 52% 29.98 in - North 4.6 mph - N/A   Clear
4:50 AM 68.0 °F 48.2 °F 49% 29.98 in - North 8.1 mph - N/A   Clear
5:50 AM 68.0 °F 48.2 °F 49% 30.01 in - NNE 6.9 mph - N/A   Clear
6:20 AM 68.0 °F 48.2 °F 49% 30.01 in - NNE 6.9 mph - N/A   Clear
6:50 AM 68.0 °F 48.2 °F 49% 30.01 in - Variable 4.6 mph - N/A   Clear
7:20 AM 68.0 °F 48.2 °F 49% 30.01 in - Variable 5.8 mph - N/A   Clear
7:50 AM 69.8 °F 48.2 °F 46% 30.04 in - NNE 6.9 mph - N/A   Clear
8:20 AM 71.6 °F 46.4 °F 41% 30.04 in - Variable 5.8 mph - N/A   Clear
8:50 AM 73.4 °F 46.4 °F 38% 30.04 in - NNE 5.8 mph - N/A   Clear
9:00 AM 74 °F 44 °F 24% 30.04 in 6 mi NNE 5.8 mph - -  
9:20 AM 77.0 °F 44.6 °F 32% 30.04 in - Variable 5.8 mph - N/A   Clear
9:50 AM 77.0 °F 44.6 °F 32% 30.04 in - ENE 6.9 mph - N/A   Clear
10:20 AM 78.8 °F 44.6 °F 30% 30.06 in - ENE 6.9 mph - N/A   Clear
10:50 AM 78.8 °F 46.4 °F 32% 30.04 in - ESE 6.9 mph - N/A   Clear
11:20 AM 78.8 °F 50.0 °F 36% 30.06 in - SE 4.6 mph - N/A   Clear
11:50 AM 78.8 °F 46.4 °F 32% 30.06 in - SE 6.9 mph - N/A   Clear
12:20 PM 78.8 °F 48.2 °F 34% 30.06 in - SSE 6.9 mph - N/A   Clear
12:50 PM 80.6 °F 48.2 °F 32% 30.04 in 6.2 mi SSE 6.9 mph - N/A   Partly Cloudy
1:20 PM 82.4 °F 46.4 °F 28% 30.04 in 6.2 mi ESE 8.1 mph - N/A   Partly Cloudy
1:50 PM 82.4 °F 42.8 °F 25% 30.04 in 6.2 mi Variable 9.2 mph - N/A   Partly Cloudy
2:20 PM 82.4 °F 42.8 °F 25% 30.04 in 6.2 mi NE 5.8 mph - N/A   Partly Cloudy
2:50 PM 82.4 °F 42.8 °F 25% 30.04 in 6.2 mi NE 10.4 mph - N/A   Partly Cloudy
3:00 PM 82 °F 41 °F 14% 30.04 in 6 mi NE 10.4 mph - -   Scattered Clouds
3:20 PM 82.4 °F 42.8 °F 25% 30.04 in 6.2 mi NE 9.2 mph - N/A   Partly Cloudy
3:50 PM 82.4 °F 44.6 °F 26% 30.04 in 6.2 mi NE 9.2 mph - N/A   Partly Cloudy
4:20 PM 80.6 °F 48.2 °F 32% 30.04 in 6.2 mi NE 12.7 mph - N/A   Partly Cloudy
4:50 PM 80.6 °F 48.2 °F 32% 30.04 in 6.2 mi NNE 11.5 mph - N/A   Partly Cloudy
5:20 PM 80.6 °F 46.4 °F 30% 30.04 in - NE 11.5 mph - N/A   Clear
5:50 PM 78.8 °F 44.6 °F 30% 30.04 in - NE 11.5 mph - N/A   Clear
6:20 PM 78.8 °F 48.2 °F 34% 30.04 in - NE 10.4 mph - N/A   Clear
6:50 PM 77.0 °F 50.0 °F 39% 30.04 in - NE 10.4 mph - N/A   Clear
7:20 PM 75.2 °F 46.4 °F 36% 30.04 in - NE 10.4 mph - N/A   Clear
7:50 PM 75.2 °F 51.8 °F 44% 30.06 in - NE 10.4 mph - N/A   Clear
8:20 PM 75.2 °F 51.8 °F 44% 30.06 in - ENE 11.5 mph - N/A   Clear
8:50 PM 73.4 °F 50.0 °F 44% 30.06 in - ENE 11.5 mph - N/A   Clear
9:00 PM 74 °F 50 °F 32% 30.08 in 12 mi ENE 11.5 mph - -  
9:20 PM 73.4 °F 51.8 °F 47% 30.06 in - ENE 11.5 mph - N/A   Clear
9:50 PM 71.6 °F 50.0 °F 46% 30.06 in - ENE 11.5 mph - N/A   Clear
10:20 PM 71.6 °F 50.0 °F 46% 30.06 in - ENE 9.2 mph - N/A   Clear
10:50 PM 71.6 °F 51.8 °F 50% 30.06 in - ENE 8.1 mph - N/A   Clear
11:20 PM 71.6 °F 50.0 °F 46% 30.06 in - ENE 9.2 mph - N/A   Clear
11:50 PM 71.6 °F 50.0 °F 46% 30.06 in 5.6 mi ENE 9.2 mph - N/A   Unknown